This demonstration page uses our WeatherBlox Daily Observations layout. Learn more.

Left ArrowRight Arrow

47.50024, -111.30081

Hourly Observations for April 27, 2020

Temp ( °F °C ) Dew Point ( °F °C ) Humidity (%) Winds ( mph kmh ) Pressure ( in mb ) Visibility ( mi km ) Precip ( " mm )
12:53 am 00:53 Mostly Cloudy 50 10 24 -4.4 36 36 W 10 17 29.91 1013 10 16 0.00 0.00
1:53 am 01:53 Cloudy 49 9.4 24 -4.4 38 38 WSW 7 11 29.91 1013 10 16 0.00 0.00
2:53 am 02:53 Partly Cloudy 48 8.9 24 -4.4 39 39 SW 9 15 29.89 1012 10 16 0.00 0.00
3:53 am 03:53 Cloudy 49 9.4 23 -5 36 36 SSW 10 17 29.87 1011 10 16 0.00 0.00
4:53 am 04:53 Cloudy 50 10 23 -5 35 35 SSW 10 17 29.87 1011 10 16 0.00 0.00
5:53 am 05:53 Cloudy 48 8.9 24 -4.4 39 39 SSW 7 11 29.85 1011 10 16 0.00 0.00
6:53 am 06:53 Sunny 49 9.4 24 -4.4 38 38 SW 12 19 29.83 1010 10 16 0.00 0.00
7:53 am 07:53 Sunny 51 10.6 26 -3.3 38 38 SW 13 20 29.85 1011 10 16 0.00 0.00
8:53 am 08:53 Sunny 55 12.8 27 -2.8 34 34 SW 23 37 29.84 1011 10 16 0.00 0.00
9:53 am 09:53 Sunny 59 15 29 -1.7 32 32 SW 26 43 29.84 1010 10 16 0.00 0.00
10:53 am 10:53 Partly Cloudy 58 14.4 30 -1.1 35 35 SW 25 41 29.85 1011 10 16 0.00 0.00
11:53 am 11:53 Sunny 61 16.1 31 -0.6 32 32 WSW 29 46 29.83 1010 10 16 0.00 0.00
12:53 pm 12:53 Sunny 58 14.4 31 -0.6 36 36 SW 29 46 29.81 1010 10 16 0.00 0.00
1:53 pm 13:53 Mostly Sunny 62 16.7 32 0 32 32 SW 26 43 29.81 1009 10 16 0.00 0.00
2:53 pm 14:53 Sunny 64 17.8 31 -0.6 29 29 SW 23 37 29.79 1009 10 16 0.00 0.00
3:53 pm 15:53 Mostly Sunny 65 18.3 30 -1.1 27 27 WSW 23 37 29.78 1009 10 16 0.00 0.00
4:53 pm 16:53 Mostly Sunny 62 16.7 30 -1.1 30 30 W 20 31 29.80 1009 10 16 0.00 0.00
5:53 pm 17:53 Mostly Sunny 61 16.1 28 -2.2 29 29 W 32 52 29.77 1008 10 16 0.00 0.00
6:53 pm 18:53 Partly Cloudy 57 13.9 28 -2.2 33 33 W 39 63 29.81 1009 10 16 0.00 0.00
7:53 pm 19:53 Partly Cloudy 51 10.6 34 1.1 52 52 W 18 30 29.86 1011 10 16 0.00 0.00
8:53 pm 20:53 Clear 49 9.4 35 1.7 59 59 WSW 17 28 29.87 1012 10 16 0.00 0.00
9:53 pm 21:53 Clear 49 9.4 31 -0.6 50 50 WSW 26 43 29.85 1011 10 16 0.00 0.00
10:53 pm 22:53 Mostly Clear 49 9.4 30 -1.1 48 48 W 30 48 29.90 1013 10 16 0.00 0.00
11:28 pm 23:28 Clear 43 6.1 32 0 65 65 N 18 30 29.98 1015 10 16 0.00 0.00
11:53 pm 23:53 Mostly Clear 40 4.4 31 -0.6 70 70 NNW 9 15 29.99 1016 10 16 0.00 0.00

Powered by AerisWeather